Powrót do katalogu

COSMOS 1176 FUEL CORE

AktywnyLEO
NORAD 11971·DEBRIS·🇷🇺 Russia

Wystrzelony Apr 29, 1980 z Baikonur Cosmodrome

Loading…

Następne Przeloty (najbliższe 24 godziny)

TLE

ŚwieżeSource: Space-Track

Epoka: Sep 14, 2026, 06:25 UTC

1 11971U 80034D   26257.26789681 -.00000100  00000-0 -50167-5 0  9990
2 11971  64.8326 204.2457 0038589 208.2891 300.5202 13.96933582358059

Śledź COSMOS 1176 FUEL CORE w czasie rzeczywistym z AllMySat

Download on the App Store